CW8733 Weather Reports


Display with metric or nautical units.
time (UTC)temp
F
wind
direction
speed
MPH
gust
MPH
rain 1hr
in
rain 24hr
in
rain mn
in
humidity
%
barometer
mb
20260505210017 71 248 11.0 20.0 0.00 0.41 0.18 44 1011.6
20260505205037 70 270 5.0 12.0 0.00 0.41 0.18 47 1011.4
20260505204017 70 270 3.0 7.0 0.00 0.41 0.18 50 1011.5
20260505203017 70 270 6.0 11.0 0.00 0.41 0.18 53 1012.0
20260505202017 70 293 7.0 11.0 0.00 0.41 0.18 52 1012.0
20260505201017 70 270 7.0 12.0 0.00 0.41 0.18 51 1011.9
20260505200017 70 225 6.0 14.0 0.00 0.41 0.18 54 1012.0
20260505195017 70 225 7.0 12.0 0.00 0.41 0.18 51 1011.7
20260505194037 72 270 6.0 11.0 0.00 0.41 0.18 55 1012.1
20260505193037 71 293 6.0 10.0 0.00 0.41 0.18 56 1012.2
20260505192017 70 248 6.0 10.0 0.00 0.41 0.18 56 1012.2
20260505191017 70 270 8.0 14.0 0.00 0.41 0.18 56 1012.4
20260505190017 70 248 3.0 7.0 0.00 0.41 0.18 56 1012.4
20260505185017 70 270 8.0 13.0 0.00 0.41 0.18 55 1012.7
20260505184017 69 225 4.0 11.0 0.00 0.41 0.18 59 1012.7
20260505183017 68 315 2.0 5.0 0.00 0.41 0.18 59 1012.7
20260505182017 68 293 2.0 5.0 0.00 0.41 0.18 59 1012.9
20260505181017 68 315 2.0 5.0 0.00 0.41 0.18 62 1012.9
20260505180017 68 203 4.0 7.0 0.00 0.41 0.18 61 1013.2
20260505175017 68 248 3.0 8.0 0.00 0.41 0.18 66 1013.3
20260505174017 66 270 1.0 4.0 0.00 0.41 0.18 70 1013.0
20260505173016 65 180 3.0 6.0 0.00 0.41 0.18 70 1012.9
20260505172017 64 203 2.0 4.0 0.00 0.41 0.18 73 1012.9
20260505171017 63 248 1.0 3.0 0.00 0.41 0.18 76 1012.7
20260505170017 62 248 2.0 5.0 0.00 0.41 0.18 79 1012.6
20260505165017 61 248 1.0 3.0 0.00 0.41 0.18 83 1012.3
20260505164017 61 248 3.0 6.0 0.00 0.41 0.18 84 1012.5
20260505163017 60 225 3.0 6.0 0.00 0.41 0.18 88 1012.4
20260505162017 60 225 1.0 3.0 0.00 0.41 0.18 90 1012.5
20260505161016 60 225 1.0 2.0 0.00 0.41 0.18 90 1012.2
20260505153017 59 180 1.0 2.0 0.00 0.41 0.18 93 1011.9
20260505152016 59 0.0 0.0 0.00 0.41 0.18 93 1011.8
20260505151016 58 315 1.0 3.0 0.00 0.41 0.18 93 1011.7
20260505125016 57 0.0 2.0 0.01 0.41 0.18 93 1011.3
20260505124016 57 203 1.0 5.0 0.01 0.41 0.18 93 1011.3
20260505123016 57 0.0 0.0 0.00 0.40 0.17 92 1010.9
20260505122016 57 0.0 0.0 0.00 0.40 0.17 92 1010.9
20260505121016 57 0.0 2.0 0.01 0.40 0.17 92 1010.7
20260505120017 57 0.0 2.0 0.01 0.40 0.17 92 1011.0
20260505115016 56 338 1.0 3.0 0.02 0.40 0.17 92 1011.2
20260505114016 57 135 3.0 5.0 0.02 0.40 0.17 92 1011.1
20260505113016 57 158 4.0 7.0 0.02 0.40 0.17 92 1012.0
20260505112016 57 158 3.0 6.0 0.03 0.40 0.17 92 1011.7
20260505091017 57 90 2.0 4.0 0.05 0.33 0.10 90 1014.4
20260505090016 58 90 1.0 3.0 0.04 0.32 0.09 91 1014.8
20260505084036 57 0.0 0.0 0.05 0.31 0.08 91 1015.4
20260505083036 57 0.0 0.0 0.05 0.30 0.07 91 1015.4
20260505081016 58 0.0 0.0 0.05 0.28 0.05 91 1015.9
20260505080016 58 0.0 0.0 0.05 0.28 0.05 91 1015.9
20260505075016 58 0.0 0.0 0.04 0.27 0.04 90 1016.1
20260505074016 58 0.0 0.0 0.04 0.26 0.03 90 1016.0
20260505073016 58 0.0 3.0 0.03 0.25 0.02 89 1016.0
20260505072016 58 135 3.0 5.0 0.03 0.24 0.01 89 1015.9
20260505071016 58 158 1.0 4.0 0.03 0.23 0.00 90 1015.8
20260505070016 58 0.0 1.0 0.03 0.23 0.23 90 1015.4
20260505065016 58 180 2.0 4.0 0.03 0.23 0.23 89 1015.4
20260505064016 58 0.0 2.0 0.03 0.22 0.22 89 1015.2
20260505063016 59 0.0 2.0 0.03 0.22 0.22 90 1015.3
20260505062036 58 0.0 0.0 0.02 0.21 0.21 90 1015.4
20260505061016 58 0.0 0.0 0.02 0.20 0.20 89 1015.4
20260505060016 58 0 1.0 2.0 0.02 0.20 0.20 89 1015.3
20260505055016 58 338 3.0 5.0 0.02 0.20 0.20 88 1015.0
20260505054016 58 135 3.0 5.0 0.02 0.19 0.19 87 1015.1
20260505053016 58 135 6.0 9.0 0.02 0.19 0.19 87 1015.3
20260505052016 58 158 2.0 5.0 0.02 0.19 0.19 88 1015.3
20260505051016 59 180 3.0 6.0 0.01 0.18 0.18 88 1015.3
20260505041016 58 23 4.0 6.0 0.01 0.17 0.17 86 1014.9
20260505035016 57 113 1.0 3.0 0.03 0.17 0.17 84 1014.1
20260505034016 57 90 4.0 7.0 0.04 0.17 0.17 83 1013.8
20260505033016 56 45 7.0 12.0 0.05 0.17 0.17 83 1013.6
20260505032016 56 45 7.0 11.0 0.06 0.17 0.17 83 1013.9
20260505031016 57 23 3.0 5.0 0.05 0.16 0.16 84 1014.6
20260505030016 57 45 3.0 4.0 0.05 0.15 0.15 84 1015.0
20260505025056 58 0.0 3.0 0.06 0.14 0.14 84 1015.0
20260505024036 58 0 1.0 3.0 0.06 0.13 0.13 83 1014.8
20260505023016 58 338 2.0 5.0 0.05 0.12 0.12 82 1014.7
20260505022036 59 158 1.0 3.0 0.05 0.11 0.11 80 1014.9
20260505021036 59 270 1.0 5.0 0.05 0.11 0.11 78 1014.7
20260505020016 60 293 1.0 3.0 0.05 0.10 0.10 81 1014.5
20260505015016 60 180 2.0 4.0 0.04 0.08 0.08 80 1014.4
20260505014016 61 0.0 3.0 0.03 0.07 0.07 79 1014.3
20260505013016 61 0.0 0.0 0.04 0.07 0.07 81 1013.5
20260505012016 61 0.0 0.0 0.04 0.06 0.06 80 1013.2
20260505011016 61 0.0 0.0 0.06 0.06 0.06 80 1012.9
20260505010016 62 0.0 3.0 0.05 0.05 0.05 76 1012.9
20260505005016 62 113 1.0 6.0 0.04 0.04 0.04 75 1013.1
20260505004016 63 135 6.0 8.0 0.04 0.04 0.04 72 1013.3
20260505003016 64 0.0 2.0 0.03 0.03 0.03 70 1013.5
20260505002016 65 23 1.0 4.0 0.02 0.02 0.02 61 1012.9
20260505001016 66 315 2.0 6.0 0.00 0.00 0.00 57 1012.8
20260505000016 66 23 7.0 14.0 0.00 0.00 0.00 55 1012.5
20260504235016 68 338 8.0 16.0 0.00 0.00 0.00 51 1012.8
20260504234016 70 293 12.0 23.0 0.00 0.00 0.00 43 1013.5
20260504233056 73 270 12.0 22.0 0.00 0.00 0.00 34 1013.4
20260504232016 75 293 11.0 17.0 0.00 0.00 0.00 26 1013.3
20260504231056 76 270 13.0 25.0 0.00 0.00 0.00 24 1013.3
20260504230016 77 270 9.0 15.0 0.00 0.00 0.00 22 1013.2
20260504225016 77 293 6.0 12.0 0.00 0.00 0.00 21 1013.0
20260504224036 78 270 8.0 14.0 0.00 0.00 0.00 20 1012.9
20260504223016 79 248 9.0 20.0 0.00 0.00 0.00 19 1012.7
20260504222016 80 270 11.0 21.0 0.00 0.00 0.00 19 1012.8
20260504221016 80 293 10.0 17.0 0.00 0.00 0.00 19 1012.9
20260504220016 81 270 8.0 16.0 0.00 0.00 0.00 19 1013.2
20260504215016 81 270 8.0 13.0 0.00 0.00 0.00 18 1012.9
20260504214016 81 248 8.0 12.0 0.00 0.00 0.00 17 1012.9
20260504213016 82 248 10.0 22.0 0.00 0.00 0.00 17 1012.6
20260504212016 82 293 7.0 14.0 0.00 0.00 0.00 17 1012.7
20260504211036 81 270 4.0 9.0 0.00 0.00 0.00 18 1012.9